Home > Weather > Tulsa > Past weeks

Flag for USA Weather for the Past 2 Weeks in Tulsa, Oklahoma, USA

Now
66 °F

Sunny.


Feels Like: 66 °F
Forecast: 46 / 78 °F
Wind: No wind

Location: Tulsa International Airport

Current Time: May 5, 2016 at 10:24:57 AM

Latest Report: May 5, 2016 at 9:53 AM


Visibility: 10 mi

Pressure: 30.08 "Hg

Humidity: 54%

Dew Point: 49 °F

Location of TulsaLocation

Historic Weather in Tulsa — Graph

°F

Tulsa Temperature Yesterday

Maximum temperature yesterday: 78 °F (at 2:53 PM)
Minimum temperature yesterday: 54 °F (at 5:53 AM)
Average temperature yesterday: 66 °F

High & Low Weather Summary for the Past Weeks

 TemperatureHumidityPressure
High83 °F (Apr 26, 4:53 PM)100% (Apr 21, 5:53 AM)30.15 "Hg (Apr 21, 5:53 AM)
Low43 °F (May 3, 6:01 AM)24% (May 4, 3:53 PM)29.48 "Hg (Apr 26, 6:53 PM)
Average65 °F69%29.87 "Hg
* Reported Apr 20 8:53 AM — May 5 8:53 AM, Tulsa, Weather by CustomWeather, © 2016

Note: Actual official high and low records may vary slightly from our data, if they occured in-between our weather recording intervals... More about our weather records

Advertising

Tulsa Weather History for the Previous 24 Hours

Scroll right to see more
 ConditionsComfort  
Time TempWeatherWind HumidityBarometerVisibility
8:53 AM
Thu, May 5
59 °FSunny.3 mph69%30.08 "Hg10 mi
7:53 AM54 °FSunny.No wind83%30.06 "Hg10 mi
6:53 AM48 °FClear.No wind89%30.04 "Hg10 mi
5:53 AM49 °FClear.No wind84%30.02 "Hg10 mi
4:53 AM51 °FClear.3 mph77%30.01 "Hg10 mi
3:53 AM51 °FClear.5 mph77%29.99 "Hg10 mi
2:53 AM53 °FClear.3 mph72%29.99 "Hg10 mi
1:53 AM56 °FClear.3 mph65%30.00 "Hg10 mi
12:53 AM57 °FClear.No wind67%29.99 "Hg10 mi
11:53 PM
Wed, May 4
56 °FClear.No wind72%29.99 "Hg10 mi
10:53 PM57 °FClear.3 mph64%29.98 "Hg10 mi
9:53 PM62 °FClear.5 mph50%29.97 "Hg10 mi
8:53 PM63 °FSunny.7 mph47%29.95 "Hg10 mi
7:53 PM68 °FSunny.8 mph38%29.94 "Hg10 mi
6:53 PM74 °FSunny.10 mph29%29.94 "Hg10 mi
5:53 PM76 °FSunny.14 mph26%29.93 "Hg10 mi
4:53 PM77 °FSunny.18 mph24%29.92 "Hg10 mi
3:53 PM78 °FSunny.14 mph24%29.93 "Hg10 mi
2:53 PM78 °FSunny.18 mph28%29.93 "Hg10 mi
1:53 PM77 °FSunny.20 mph30%29.93 "Hg10 mi
12:53 PM76 °FSunny.16 mph36%29.95 "Hg10 mi
11:53 AM76 °FSunny.17 mph42%29.95 "Hg10 mi
10:53 AM73 °FSunny.15 mph44%29.95 "Hg10 mi
Weather by CustomWeather, © 2016

See weather overviewHow to use our weather pages